| time (UTC) | temp C | wind direction | speed KPH | gust KPH | rain 1hr cm | rain 24hr cm | rain mn cm | humidity % | barometer mb |
| 20260901201318 | 5 | 15 | 0.0 | 0.0 | 0.00 | 0.00 | 0.00 | 94 | 1024.5 |
| 20260901195809 | 5 | 15 | 0.0 | 0.0 | 0.00 | 0.00 | 0.00 | 94 | 1024.3 |
| 20260901192825 | 6 | 15 | 0.0 | 0.0 | 0.00 | 0.00 | 0.00 | 92 | 1023.9 |
| 20260901191313 | 6 | 15 | 0.0 | 0.0 | 0.00 | 0.00 | 0.00 | 93 | 1023.8 |
| 20260901184326 | 8 | 15 | 0.0 | 0.0 | 0.00 | 0.00 | 0.00 | 93 | 1023.4 |
| 20260901182824 | 8 | 15 | 0.0 | 0.0 | 0.00 | 0.00 | 0.00 | 92 | 1023.4 |
| 20260901181314 | 10 | 15 | 0.0 | 0.0 | 0.00 | 0.00 | 0.00 | 91 | 1023.2 |
| 20260901175809 | 11 | 15 | 0.0 | 0.0 | 0.00 | 0.00 | 0.00 | 93 | 1023.3 |
| 20260901172824 | 12 | 90 | 0.0 | 0.0 | 0.00 | 0.00 | 0.00 | 94 | 1023.0 |
| 20260901171319 | 12 | 90 | 0.0 | 1.6 | 0.00 | 0.00 | 0.00 | 94 | 1022.8 |
| 20260901165817 | 12 | 91 | 0.0 | 1.6 | 0.00 | 0.00 | 0.00 | 93 | 1022.9 |
| 20260901162824 | 13 | 76 | 0.0 | 1.6 | 0.00 | 0.00 | 0.00 | 93 | 1023.0 |
| 20260901161317 | 13 | 68 | 0.0 | 3.2 | 0.00 | 0.00 | 0.00 | 92 | 1022.9 |
| 20260901155810 | 13 | 312 | 0.0 | 6.4 | 0.00 | 0.00 | 0.00 | 93 | 1022.9 |
| 20260901154310 | 13 | 62 | 1.6 | 8.0 | 0.00 | 0.00 | 0.00 | 93 | 1023.1 |
| 20260901151317 | 13 | 39 | 1.6 | 11.3 | 0.00 | 0.00 | 0.00 | 92 | 1023.1 |
| 20260901145812 | 13 | 78 | 0.0 | 8.0 | 0.00 | 0.00 | 0.00 | 91 | 1023.1 |
| 20260901144312 | 13 | 71 | 1.6 | 11.3 | 0.00 | 0.00 | 0.00 | 91 | 1023.0 |
| 20260901141316 | 14 | 53 | 1.6 | 17.7 | 0.00 | 0.00 | 0.00 | 89 | 1023.2 |
| 20260901134325 | 13 | 70 | 0.0 | 8.0 | 0.00 | 0.00 | 0.00 | 89 | 1023.5 |
| 20260901132813 | 14 | 85 | 0.0 | 9.7 | 0.00 | 0.00 | 0.00 | 88 | 1023.0 |
| 20260901125821 | 14 | 63 | 3.2 | 8.0 | 0.00 | 0.00 | 0.00 | 86 | 1023.4 |
| 20260901124315 | 15 | 302 | 0.0 | 8.0 | 0.00 | 0.00 | 0.00 | 83 | 1023.4 |
| 20260901121324 | 15 | 92 | 0.0 | 6.4 | 0.00 | 0.00 | 0.00 | 81 | 1023.4 |
| 20260901115816 | 16 | 84 | 1.6 | 11.3 | 0.00 | 0.00 | 0.00 | 81 | 1023.4 |
| 20260901112821 | 15 | 99 | 4.8 | 9.7 | 0.00 | 0.00 | 0.00 | 83 | 1023.4 |
| 20260901111314 | 15 | 20 | 0.0 | 12.9 | 0.00 | 0.00 | 0.00 | 82 | 1023.3 |
| 20260901105813 | 15 | 338 | 0.0 | 11.3 | 0.00 | 0.00 | 0.00 | 84 | 1023.4 |
| 20260901102817 | 15 | 336 | 3.2 | 12.9 | 0.00 | 0.00 | 0.00 | 82 | 1023.4 |
| 20260901095827 | 13 | 90 | 1.6 | 9.7 | 0.00 | 0.00 | 0.00 | 89 | 1023.3 |
| 20260901094325 | 13 | 82 | 1.6 | 11.3 | 0.00 | 0.00 | 0.00 | 91 | 1023.4 |
| 20260901092817 | 13 | 18 | 0.0 | 9.7 | 0.00 | 0.00 | 0.00 | 90 | 1023.4 |
| 20260901085830 | 13 | 233 | 3.2 | 9.7 | 0.00 | 0.00 | 0.00 | 91 | 1023.1 |
| 20260901084319 | 13 | 331 | 1.6 | 12.9 | 0.00 | 0.00 | 0.00 | 91 | 1023.0 |
| 20260901082815 | 13 | 63 | 4.8 | 11.3 | 0.00 | 0.00 | 0.00 | 91 | 1023.0 |
| 20260901075819 | 12 | 59 | 0.0 | 6.4 | 0.00 | 0.00 | 0.00 | 93 | 1022.5 |
| 20260901074316 | 11 | 74 | 0.0 | 9.7 | 0.00 | 0.00 | 0.00 | 93 | 1022.5 |
| 20260901071325 | 12 | 78 | 0.0 | 3.2 | 0.00 | 0.00 | 0.00 | 94 | 1022.4 |
| 20260901065819 | 12 | 66 | 0.0 | 1.6 | 0.00 | 0.00 | 0.00 | 94 | 1022.3 |
| 20260901064313 | 12 | 95 | 0.0 | 1.6 | 0.00 | 0.00 | 0.00 | 94 | 1022.3 |
| 20260901061327 | 12 | 263 | 0.0 | 1.6 | 0.00 | 0.00 | 0.00 | 94 | 1022.6 |
| 20260901055823 | 12 | 268 | 0.0 | 1.6 | 0.00 | 0.00 | 0.00 | 94 | 1022.7 |
| 20260901054316 | 11 | 264 | 0.0 | 1.6 | 0.00 | 0.00 | 0.00 | 94 | 1022.8 |
| 20260901051327 | 11 | 264 | 0.0 | 0.0 | 0.00 | 0.00 | 0.00 | 94 | 1022.9 |
| 20260901045819 | 11 | 264 | 0.0 | 1.6 | 0.00 | 0.00 | 0.00 | 94 | 1023.1 |
| 20260901042830 | 4 | 264 | 0.0 | 0.0 | 0.00 | 0.00 | 0.00 | 93 | 1023.0 |
| 20260901041319 | 3 | 264 | 0.0 | 0.0 | 0.00 | 0.00 | 0.00 | 93 | 1023.0 |
| 20260901035815 | 2 | 264 | 0.0 | 0.0 | 0.00 | 0.00 | 0.00 | 94 | 1022.9 |
| 20260901032824 | 1 | 264 | 0.0 | 0.0 | 0.00 | 0.00 | 0.00 | 95 | 1022.7 |
| 20260901025828 | 1 | 264 | 0.0 | 0.0 | 0.00 | 0.00 | 0.00 | 95 | 1022.8 |
| 20260901024322 | 2 | 264 | 0.0 | 0.0 | 0.00 | 0.00 | 0.00 | 95 | 1022.8 |
| 20260901021329 | 3 | 264 | 0.0 | 0.0 | 0.00 | 0.00 | 0.00 | 95 | 1023.0 |
| 20260901015821 | 3 | 264 | 0.0 | 0.0 | 0.00 | 0.00 | 0.00 | 95 | 1023.0 |
| 20260901012827 | 5 | 264 | 0.0 | 0.0 | 0.00 | 0.00 | 0.00 | 94 | 1022.9 |
| 20260901011320 | 5 | 264 | 0.0 | 0.0 | 0.00 | 0.00 | 0.00 | 94 | 1022.9 |
| 20260901005817 | 5 | 264 | 0.0 | 0.0 | 0.00 | 0.00 | 0.00 | 94 | 1023.2 |
| 20260901002819 | 2 | 276 | 0.0 | 0.0 | 0.00 | 0.00 | 0.00 | 94 | 1023.1 |
| 20260901001316 | 2 | 276 | 0.0 | 0.0 | 0.00 | 0.00 | 0.00 | 93 | 1023.1 |
| 20260831234323 | 3 | 276 | 0.0 | 0.0 | 0.00 | 0.00 | 0.00 | 92 | 1022.9 |
| 20260831232818 | 4 | 276 | 0.0 | 0.0 | 0.00 | 0.00 | 0.00 | 92 | 1022.9 |
| 20260831225829 | 6 | 276 | 0.0 | 0.0 | 0.00 | 0.00 | 0.00 | 93 | 1022.6 |
| 20260831224321 | 6 | 276 | 0.0 | 0.0 | 0.00 | 0.00 | 0.00 | 91 | 1022.4 |
| 20260831222816 | 7 | 276 | 0.0 | 0.0 | 0.00 | 0.00 | 0.00 | 92 | 1022.2 |
| 20260831215838 | 8 | 276 | 0.0 | 0.0 | 0.00 | 0.00 | 0.00 | 85 | 1022.3 |
| 20260831214319 | 10 | 276 | 0.0 | 0.0 | 0.00 | 0.00 | 0.00 | 80 | 1022.2 |
| 20260831211327 | 13 | 277 | 0.0 | 6.4 | 0.00 | 0.00 | 0.00 | 69 | 1021.9 |
| 20260831205823 | 14 | 40 | 1.6 | 9.7 | 0.00 | 0.00 | 0.00 | 66 | 1022.0 |
| 20260831202830 | -17 | 0.0 | 0.0 | 0.00 | 0.00 | 0.00 | 1021.8 |